Regional Weather Roundup
Issued by NWS

Home | Current Version | Previous Version | Graphics & Text | Print | Product List | Glossary On
Versions: 1 2 3 4 5 6 7 8 9 10 11 12 13 14 15 16 17 18 19 20 21 22 23 24 25 26 27 28 29 30 31 32 33 34 35 36 37 38 39 40 41 42 43 44 45 46 47 48 49 50
000
ASUS43 KLMK 240310
RWRKY
KENTUCKY REGIONAL WEATHER ROUNDUP
NATIONAL WEATHER SERVICE LOUISVILLE KY
1000 PM EST FRI FEB 23 2018

NOTE "FAIR" INDICATES FEW OR NO CLOUDS BELOW 12,000 FEET
WITH NO SIGNIFICANT WEATHER AND/OR OBSTRUCTIONS TO VISIBILITY.

KYZ001>023-026-027-061>063-070>075-240400-
WESTERN AND SOUTH CENTRAL KENTUCKY

CITY           SKY/WX    TMP DP  RH WIND       PRES   REMARKS
PADUCAH        FAIR      51  49  92 N6        30.21S
HENDERSON      FAIR      49  47  93 N3        30.22F
OWENSBORO      MOCLDY    51  48  89 N7        30.22F
HOPKINSVILLE   HVY RAIN  57  57 100 SE6       30.20R FOG
BOWLING GREEN  CLOUDY    59  58  96 CALM      30.21S
GLASGOW        CLOUDY   N/A N/A N/A N6        30.21R
$$

KYZ024-025-028>034-038-045-046-053-240400-
NORTH CENTRAL KENTUCKY

CITY           SKY/WX    TMP DP  RH WIND       PRES   REMARKS
LOUISVILLE/SDF MOCLDY    58  56  93 CALM      30.22S
LOUISVILLE/LOU CLOUDY    57  57 100 CALM      30.22S
FORT KNOX      CLOUDY    55  55 100 NW3       30.22S
$$

KYZ035>037-039>044-047>052-055>060-089>105-240400-
NORTHEAST KENTUCKY

CITY           SKY/WX    TMP DP  RH WIND       PRES   REMARKS
LEXINGTON      LGT RAIN  60  58  92 N9        30.21F
COVINGTON      CLOUDY    54  53  97 CALM      30.21R
FRANKFORT      HVY RAIN  60  56  86 CALM      30.20F FOG
$$

KYZ054-064>069-076>088-106>120-240400-
SOUTHEAST KENTUCKY

CITY           SKY/WX    TMP DP  RH WIND       PRES   REMARKS
JACKSON        FAIR      68  56  65 SW5       30.21F
LONDON         MOCLDY    65  57  75 CALM      30.21F
SOMERSET       FAIR      63  54  72 CALM      30.21F
MIDDLESBORO    FAIR      58  55  87 CALM      30.24S
MONTICELLO     FAIR      59  55  87 N8        30.22F
$$





USA.gov is the U.S. government's official web portal to all federal, state and local government web resources and services.